STARLINK-31101, 58737

Orbit data source: Space-Track

STARLINK-31101, 58737 is a payload satellite owned by SpaceX/Seattle (US) in LEO that was launched on Sun, 07 Jan 2024 UTC via an FALCON 9 launch vehicle from the Air Force Eastern Test Range (AFETR). Payload-class satellites include a variety of spacecraft equipped with specific instruments for various scientific and technological missions. These include communications satellites like Starlink; space stations such as the ISS; scientific satellites like the Hubble; Earth observation satellites from companies like Planet Labs, Umbra, and HawkEye 360; GPS; miniature CubeSats for education and research; and military/defense satellites.

Loading next visibility...
Identifier
58737, 2024-005K
Orbit
LEO
Country
Flag of USUS
Related business
Manufacturer
SpaceX/Seattle
Mission
Operational Commercial Communications
Bus & Motor
STARLINK V2M, Unknown motor
Mass
730 kg wet, ~700 kg dry
Launch date (UTC)
2024-01-07 (2 years ago)
Launch vehicle
FALCON 9
Launch site
Air Force Eastern Test Range (AFETR)
Object type
Payload
Rocket body
Debris
Shape & HBR
Box + 2 Pan, 17.7 m
Radar Cross Section
33.884 m², Large (>1 m²)

Expand to show TLE details & history
Last TLE update: 2 days ago

TLE from 2 days ago
0 STARLINK-31101
1 58737U 24005K   26171.21067907  .00006141  00000-0  23254-3 0  9991
2 58737  43.0039   0.7068 0001133 283.1427  76.9298 15.27575627136117
Epoch: 2026-06-20T05:03Z
TLE epoch observation values (Epoch: 2026-06-20T05:03:22.671Z)
Latitude
-0.00004°
Longitude
16.43373°
Altitude
482.662 km
Speed
7.626 km/s
True Right ascension
00h 02m 49s
True Declination
0° 00' 00"
Sunlit
Object was in daylight at epoch
Visualization orbit readout
Latitude
Unknown
Longitude
Unknown
Altitude
Unknown
Speed
Unknown
Apparent Right ascension
Unknown
Apparent Declination
Unknown
Sunlit
N/A
Visualization observer readout
Local Sidereal Time
21:25:18
Azimuth
Unknown
Elevation
Unknown
Doppler factor
Unknown
Orbital elements
Apogee altitude
485.784 km
Perigee altitude
484.229 km
Semi-major axis
6,863.144 km
Eccentricity
0.00011
Inclination
43.0039°
RAAN
0.7068°
Arg. of periapsis
283.1427°
True anomaly
76.94245°
Mean anomaly
76.9298°
Eccentric anomaly
76.93612°
Mean motion
3.81732 °/min
Orbital period
94.31 mins
BSTAR
0.00023254
Loading maneuver chart data...
Computing Atmospheric mass density...
Loading historical data...
Loading historical data...
Loading historical data...
Loading historical data...
Loading historical data...
Loading historical data...
Loading historical data...

Documentation

Showing up to 5 results
|